EROS B

Last updated on Fri Apr 25 2025 00:02:24 GMT+0000 (Coordinated Universal Time)

1 29079U 06014A 25114.20728038 .00047586 00000+0 13573-2 0 9991 2 29079 97.3401 227.3290 0007081 212.5593 147.5215 15.35879807 54862
UTC large
Height (km)
Speed (km/s)
/
Latitude / Longitude
Inclination (degrees)
Orbital Period (minutes)
Azimuth
Elevation
Range (km)
Doppler Factor

Next 0 passes for location: London (51.5072 / 0.1276)

Sorry there are no passes over London.